Regional Weather Roundup
Issued by NWS Huntsville, AL

Home | Current Version | Previous Version | Text Only | Print | Product List | Glossary On
Versions: 1 2 3 4 5 6 7 8 9 10 11 12 13 14 15 16 17 18 19 20 21 22 23 24 25 26 27 28 29 30 31 32 33 34 35 36 37 38 39 40 41 42 43 44 45 46 47 48 49 50
000
ASUS44 KHUN 020910
RWRHUN

WEATHER ROUNDUP FOR THE TENNESSEE VALLEY
NATIONAL WEATHER SERVICE HUNTSVILLE AL
400 AM CDT SUN AUG 02 2015

ALZ001>004-021000-
NORTHWEST ALABAMA

CITY           SKY/WX    TMP DP  RH WIND       PRES   REMARKS
BANKHEAD NF      N/A     68  65  89 CALM        N/A
SHOALS AIRPORT CLEAR     71  65  81 CALM      29.97S
SHOALS TVA RES   N/A     68 N/A N/A MISG        N/A
$$

ALZ005>007-016-021000-
NORTH CENTRAL ALABAMA

CITY           SKY/WX    TMP DP  RH WIND       PRES   REMARKS
DECATUR AP     CLEAR     71  66  84 NE6       29.96S
HUNTSVILLE AP  CLEAR     70  65  84 CALM      29.95S
HUN NWS/UAH      N/A     74  64  71 N2          N/A
MERIDIANVILLE  CLEAR     64  61  88 CALM      29.97S
REDSTONE ARSN  CLEAR     69  65  87 N6        29.95S
VINEMONT AP    FAIR      62  61  95 CALM      29.99S
$$

ALZ008>010-021000-
NORTHEAST ALABAMA

CITY           SKY/WX    TMP DP  RH WIND       PRES   REMARKS
ALBERTVILLE    CLEAR     68  64  88 NE6       29.96S
FORT PAYNE     CLEAR     63  59  88 CALM      29.96S
SCOTTSBORO AP  CLEAR     64  64 100 CALM      29.97S
SCOTTSBORO HCN   N/A     63 N/A N/A MISG        N/A
VALLEY HEAD      N/A     63 N/A N/A MISG        N/A
$$

TNZ076-096-097-021000-
SOUTHEASTERN MIDDLE TENNESSEE

CITY           SKY/WX    TMP DP  RH WIND       PRES   REMARKS
TULLAHOMA      CLEAR     64  61  88 CALM      30.00S
WINCHESTER     CLEAR     63  63 100 CALM      29.98F
$$

...SURROUNDING SITES...

CITY           SKY/WX    TMP DP  RH WIND       PRES   REMARKS
ATLANTA        PTCLDY    76  59  55 N3        29.93S
ANNISTON       CLEAR     66  61  84 E3        29.94S
BIRMINGHAM     CLEAR     69  64  84 CALM      29.95S
CHATTANOOGA    CLEAR     68  65  90 CALM      29.96F
DALTON         CLEAR     63  63 100 CALM      29.95S
GADSDEN        CLEAR     64  57  77 CALM      29.93S
GOLDEN TRNGL   CLEAR     68  63  83 CALM      29.92F
HALEYVILLE     FAIR      65  65 100 CALM      30.00R
JACKSON TN     CLEAR     71  67  87 CALM      29.97S
MEMPHIS        CLEAR     80  67  64 CALM      29.96S
NASHVILLE      PTCLDY    68  64  87 CALM      29.98F
ROME           CLEAR     65  62  90 CALM      29.94S
SAVANNAH       CLEAR     66  32  28 CALM      29.97F
TUPELO         CLEAR     70  66  87 NE3       29.94F
TUSCALOOSA     CLEAR     68  62  81 CALM      29.92S
$$

...GULF COAST WEATHER...

CITY           SKY/WX    TMP DP  RH WIND       PRES   REMARKS
GULFPORT       CLEAR     72  66  81 NW5       29.85F
PASCAGOULA     PTCLDY    73  69  87 CALM      29.85F
MOBILE         CLEAR     73  69  87 NW3       29.86F
GULF SHORES    SUNNY     76  69  80 CALM      29.84S
PENSACOLA      CLEAR     75  71  87 NW6       29.83S
DESTIN         CLEAR     80  75  84 N8        29.82S
PANAMA CITY    CLEAR     77  74  92 NE7       29.82S
APPALACHICOLA  PTCLDY    78  74  87 CALM      29.81F
$$



USA.gov is the U.S. government's official web portal to all federal, state and local government web resources and services.